GFSSGP_500_spd_057.txt.gz
Wind_Speed
9 9 7 6 7 8 7 10 6 7 6 11 13 10 5 3 15 15 9 7 6 4 5 4 5 6 7 7 8 10 9 11 14 13 13 13 13 14 12 11 11 10 9 8 5 3 3 4 7
10 10 9 5 4 5 16 6 6 8 11 13 12 8 7 6 20 16 9 4 4 3 4 5 6 7 7 7 9 9 8 10 13 11 11 11 12 11 10 10 10 10 10 9 8 5 3 5 6
11 10 8 9 4 6 6 8 10 12 12 12 11 12 9 16 19 15 11 7 2 2 4 6 7 8 8 9 9 8 8 10 10 11 10 10 9 10 10 10 9 9 10 9 11 11 9 8 8
9 10 7 8 8 6 5 9 10 12 13 10 9 9 10 13 14 12 10 7 4 2 5 7 8 9 9 10 10 9 10 11 10 9 9 8 8 11 11 9 9 9 10 13 13 15 15 13 11
10 10 12 6 10 6 6 9 10 12 10 9 8 6 5 10 12 7 8 7 6 5 7 8 8 10 10 11 11 10 12 12 11 11 10 10 11 12 11 11 11 12 12 13 15 18 19 19 17
11 10 11 7 5 10 8 8 7 8 9 9 6 5 4 12 12 8 8 6 6 9 10 10 9 11 11 11 12 12 13 12 11 12 12 12 14 13 11 12 13 14 15 17 18 19 20 19 18
13 11 7 12 11 13 12 5 4 7 8 6 5 6 6 11 9 8 6 5 6 8 11 11 11 11 11 11 12 12 12 12 12 14 15 15 14 12 13 13 14 15 16 17 17 19 19 20 18
14 9 1 2 5 20 16 10 6 7 6 7 6 7 8 8 7 3 3 3 6 9 10 12 12 12 12 12 12 13 14 15 16 18 17 17 15 15 15 14 14 13 14 15 16 16 18 16 14
13 11 7 9 10 13 12 8 6 5 4 9 9 7 1 14 9 3 2 2 5 7 10 11 12 13 12 12 13 14 16 17 19 19 18 16 15 15 16 14 12 12 11 12 13 11 12 13 11
13 11 8 5 15 12 17 10 7 8 5 7 12 8 4 7 13 6 5 5 6 8 9 9 12 14 13 13 13 14 17 18 19 19 17 15 15 14 15 13 12 11 10 11 10 11 11 9 8
15 12 5 11 8 16 13 10 7 7 6 8 9 10 11 5 10 6 3 2 6 9 9 10 11 14 14 14 14 16 18 17 18 18 17 16 15 13 13 12 11 10 11 11 11 11 9 9 9
18 16 14 17 15 18 7 8 14 5 8 8 10 12 14 10 9 9 6 4 5 9 9 11 12 15 14 15 17 19 17 16 17 18 16 12 9 12 12 10 11 11 12 10 10 10 8 8 9
21 20 18 20 19 15 11 18 13 8 4 6 6 9 12 13 11 9 6 2 3 8 10 11 14 15 15 17 20 19 14 14 16 15 14 13 13 12 12 11 10 10 9 9 13 13 13 14 13
25 27 24 25 22 14 12 22 12 5 5 5 3 5 11 14 14 12 9 6 6 9 11 12 15 16 18 19 22 20 13 15 14 15 13 12 12 12 10 10 8 8 8 10 15 15 15 16 13
31 30 30 26 26 18 14 17 13 7 2 3 5 1 4 10 13 15 16 13 9 13 13 13 16 17 19 21 22 20 15 15 13 15 12 11 12 13 11 7 7 9 9 11 13 14 14 15 15
35 34 33 30 30 24 21 17 11 10 10 7 7 6 3 3 10 13 15 13 11 13 15 15 18 19 19 21 21 20 18 15 13 15 12 12 13 12 8 6 7 11 10 10 10 13 14 14 17
40 36 31 31 27 30 24 17 12 5 11 10 6 3 6 1 8 10 13 14 15 17 18 19 19 20 20 20 19 20 18 17 14 12 12 12 12 10 7 8 11 11 13 12 12 13 15 17 17
36 34 34 33 29 30 28 22 21 17 11 13 10 11 6 6 7 11 14 16 17 19 21 23 21 21 21 21 21 19 18 16 13 11 10 11 11 7 7 9 11 12 14 11 14 14 15 18 19
34 36 35 34 33 33 28 26 25 22 19 10 4 13 9 12 6 5 14 18 21 23 23 22 22 21 22 22 20 18 18 15 13 12 10 11 8 7 8 10 10 11 12 12 11 12 14 14 19
35 36 34 35 35 34 32 24 26 26 20 19 15 4 8 5 7 5 13 18 22 24 27 23 23 23 24 23 22 21 19 17 15 12 11 11 8 7 7 9 8 10 11 12 10 11 13 12 16
35 35 33 30 37 36 37 34 30 23 24 20 13 6 6 4 7 5 10 18 23 24 26 26 24 24 24 24 22 20 17 15 14 13 12 9 8 6 6 8 9 9 10 11 10 10 10 11 13
36 26 32 35 42 42 40 39 29 30 20 19 19 15 8 2 2 6 12 15 20 25 28 27 27 25 24 23 23 23 22 18 13 11 10 7 7 5 5 7 8 8 8 8 7 8 8 9 10
28 31 35 37 45 46 45 46 33 35 32 23 19 19 13 4 2 6 13 16 23 27 27 27 27 26 24 25 26 24 20 16 13 12 10 8 6 6 4 6 7 5 5 4 5 5 5 5 6
35 38 39 42 48 59 53 52 44 34 24 22 20 21 18 9 5 4 15 19 22 25 27 25 26 25 23 25 25 22 18 15 13 13 11 8 8 7 5 3 3 3 3 4 4 5 4 4 4
44 46 45 51 59 62 48 56 47 27 30 25 23 18 15 11 8 4 12 18 21 22 24 22 23 25 23 24 24 21 17 16 14 12 10 9 9 8 6 4 1 1 4 6 7 8 7 6 5
51 49 53 56 58 56 47 58 40 24 28 31 33 23 19 15 11 9 7 18 22 26 26 22 20 23 25 24 23 20 19 17 15 12 11 10 10 9 7 6 5 4 3 6 9 11 8 7 7
54 58 48 50 53 52 50 54 36 31 33 33 38 30 22 19 18 16 11 14 23 24 27 24 21 23 25 25 23 21 20 17 16 15 14 12 11 10 7 7 7 6 5 6 9 10 10 8 7
54 50 50 54 56 58 52 52 44 34 28 30 30 36 29 26 27 20 18 15 22 25 28 29 25 24 25 26 23 21 19 18 16 14 13 14 12 9 9 9 10 9 8 9 8 9 9 9 8
59 58 55 48 54 54 46 49 43 35 30 23 23 31 31 22 29 27 20 17 23 27 28 28 25 23 24 26 24 22 20 18 14 14 13 11 9 10 12 13 13 12 11 12 10 10 10 10 8
61 59 57 55 55 54 48 41 42 39 35 29 26 30 26 23 27 25 24 19 22 27 30 29 25 23 23 25 25 25 23 19 16 16 13 9 10 11 13 14 14 14 13 12 11 10 10 9 6

GFSSGP_500_spd_060.txt.gz
Wind_Speed
6 6 5 7 7 14 8 9 8 7 8 11 9 8 3 4 18 12 8 5 5 3 5 7 8 8 10 10 10 10 11 13 13 12 13 13 13 13 11 11 9 8 6 5 4 3 5 6 7
8 8 5 6 2 12 8 7 8 7 10 10 9 8 6 11 17 13 8 4 3 4 4 8 8 9 10 10 10 10 11 12 13 12 12 12 12 11 10 10 9 8 9 9 7 1 5 7 6
9 9 5 4 7 13 5 6 10 14 13 11 11 10 10 18 15 13 9 6 3 4 4 9 8 9 10 11 11 11 12 12 12 12 12 11 10 10 11 11 12 11 11 9 9 7 6 9 7
8 7 4 4 5 4 4 7 10 12 13 11 11 10 14 20 12 11 8 5 4 4 5 8 8 10 11 12 12 12 13 13 12 11 10 11 12 12 13 14 13 14 13 13 12 11 10 10 7
9 7 6 5 10 6 8 8 11 10 11 9 9 9 15 16 10 9 7 6 5 6 8 7 8 11 12 12 12 12 13 14 14 13 13 13 15 15 15 14 14 14 13 15 15 17 14 13 12
9 9 5 4 9 7 8 11 13 9 6 8 7 7 11 14 10 4 5 5 5 7 10 8 10 11 12 12 12 13 12 14 14 14 15 16 16 15 15 16 16 16 15 16 17 18 16 15 14
10 8 6 9 7 11 9 10 9 11 7 7 7 9 11 13 9 7 5 5 6 7 10 10 11 12 13 12 12 12 12 13 13 15 16 16 15 16 17 17 16 16 16 14 14 16 15 15 14
10 9 5 4 12 13 16 9 10 10 10 8 9 11 14 14 9 6 4 4 6 8 10 11 13 13 13 12 12 12 12 14 16 17 17 16 16 15 17 15 13 14 13 13 13 11 11 13 12
10 10 6 4 5 10 18 13 11 12 11 10 11 10 8 15 13 7 3 5 6 8 10 11 13 13 14 13 12 14 15 17 18 17 17 17 16 15 15 14 13 11 11 10 9 9 8 9 9
10 13 11 8 9 10 16 18 11 7 10 10 13 12 14 11 14 11 7 7 7 9 9 10 13 13 14 14 13 16 17 18 19 19 17 16 16 14 14 13 11 11 10 11 10 10 9 8 8
15 16 14 12 14 10 15 12 7 9 8 11 11 10 17 10 11 12 7 5 7 11 10 11 13 13 13 15 16 18 18 17 17 18 17 15 13 14 14 13 12 12 11 10 9 8 8 7 9
19 19 19 14 13 11 16 12 14 12 10 10 9 10 14 18 13 12 9 7 8 11 12 12 14 13 13 16 18 19 15 16 16 16 15 11 13 13 14 14 13 11 10 9 10 11 12 12 7
20 22 22 17 20 17 16 20 18 8 7 9 9 12 15 16 17 13 10 6 7 11 13 14 16 15 14 18 20 17 17 17 18 15 14 13 13 11 12 13 11 10 10 11 13 13 14 11 10
26 29 28 23 18 19 13 19 16 10 11 8 5 9 15 17 17 15 12 8 8 12 13 15 17 16 16 20 23 17 16 15 15 13 14 13 12 11 10 11 11 10 12 12 13 15 15 15 10
32 31 31 25 19 18 10 20 14 11 7 7 9 9 8 11 16 18 17 14 11 15 15 16 18 18 17 22 24 19 18 15 14 13 13 11 11 11 7 10 10 12 10 11 13 14 16 16 14
35 35 32 29 24 21 14 14 13 9 10 8 8 10 11 11 15 19 17 14 11 13 17 18 19 19 19 22 22 19 19 16 15 14 14 11 11 7 9 9 11 13 11 11 14 16 17 16 15
42 38 27 30 27 24 20 15 17 10 10 11 9 6 9 7 9 13 16 17 16 17 17 20 21 20 21 20 19 17 20 17 14 14 13 12 9 6 10 10 13 14 15 15 15 17 20 16 14
34 32 30 32 30 27 24 19 20 19 18 18 12 8 10 5 6 10 17 19 19 21 20 22 23 23 23 22 18 17 17 18 16 13 12 12 9 7 10 13 13 14 14 15 14 17 17 19 16
34 35 34 34 33 31 26 23 24 24 24 21 14 12 15 9 5 6 14 17 22 24 23 22 22 23 23 23 19 19 18 16 15 15 13 11 9 8 12 13 13 14 12 11 12 14 15 18 17
37 36 37 36 39 38 34 27 30 28 28 26 21 20 14 13 10 11 13 14 17 25 27 25 23 23 26 25 24 22 20 18 14 13 12 10 9 10 11 11 12 13 11 9 10 11 13 16 16
38 36 34 33 41 42 38 39 39 28 33 31 24 21 15 14 14 14 14 18 21 25 26 26 24 25 26 27 24 21 18 16 13 12 11 9 8 9 10 10 10 10 11 10 8 10 11 13 14
40 28 33 38 42 45 41 42 37 31 28 32 24 22 18 15 15 15 15 18 21 25 29 28 27 26 28 26 24 24 24 20 16 14 13 10 10 9 9 9 8 8 8 6 6 8 8 10 11
31 35 34 38 44 46 47 47 37 36 33 27 28 23 19 18 10 13 16 21 24 27 31 29 29 27 28 26 26 26 24 18 16 16 14 13 11 10 9 8 7 7 6 4 4 7 7 7 8
38 40 39 41 48 58 50 51 41 36 31 27 29 23 21 18 13 13 16 21 22 28 32 31 30 28 26 27 28 27 24 22 20 19 16 13 12 11 9 7 5 5 5 5 5 6 6 5 6
48 48 47 48 58 60 50 55 38 34 31 31 29 28 22 18 14 13 17 18 18 23 29 29 28 28 26 27 29 28 25 23 21 19 16 13 13 11 9 7 4 2 4 7 9 10 5 4 4
54 54 55 58 58 55 52 60 35 32 33 32 32 32 32 28 22 19 17 19 22 25 27 28 26 27 27 26 28 29 25 23 22 20 18 16 14 12 9 6 4 2 2 4 6 9 11 6 4
59 61 54 56 56 53 57 55 33 35 35 42 33 34 34 29 24 21 20 21 22 25 28 30 26 25 28 27 29 28 24 22 21 20 19 19 17 15 11 8 5 3 3 5 4 6 8 9 6
62 61 57 59 60 59 58 54 39 34 33 41 39 39 35 28 26 27 24 23 25 26 29 32 32 29 29 31 30 28 26 24 22 20 19 18 18 15 12 9 8 7 6 7 6 4 5 7 7
64 68 62 56 58 58 57 53 40 35 31 40 41 40 38 32 27 27 25 24 27 28 30 30 29 32 34 34 33 29 27 24 20 19 19 17 15 12 12 11 11 10 10 9 8 6 5 5 6
69 65 67 65 62 60 57 52 38 36 33 37 40 38 36 31 31 28 26 24 27 27 30 30 29 26 31 33 34 32 29 25 21 19 19 17 15 12 11 11 12 12 11 11 9 8 6 6 5

GFSSGP_500_spd_063.txt.gz
Wind_Speed
8 9 10 10 8 9 9 9 9 8 8 9 10 8 6 17 14 10 11 8 6 8 8 10 12 13 13 11 12 13 13 13 13 13 13 12 11 10 9 10 10 8 6 4 2 5 7 8 8
7 8 11 7 2 10 9 7 7 9 8 8 6 5 10 22 15 12 10 9 6 7 10 12 12 13 13 11 12 13 13 12 12 12 11 10 9 9 9 10 10 9 8 7 5 4 7 7 7
5 6 7 8 9 11 8 8 10 13 10 7 5 8 20 20 13 11 11 8 7 8 11 13 13 12 12 12 13 13 14 13 12 12 11 9 9 10 11 11 10 11 12 12 9 6 8 8 8
3 3 2 5 2 5 8 11 11 12 11 8 7 8 17 19 13 10 9 8 8 9 11 13 13 13 12 12 13 13 14 13 12 11 10 10 11 13 11 12 13 14 15 15 13 12 11 8 9
6 5 4 1 4 6 8 10 10 10 8 7 7 10 16 13 11 9 6 8 9 11 12 13 13 13 13 14 15 15 15 13 13 12 13 13 15 15 14 15 15 15 17 18 19 17 14 11 12
6 6 5 1 11 6 8 8 11 11 7 6 7 10 14 11 10 7 5 8 8 12 13 14 14 13 13 15 16 17 16 15 14 14 16 15 16 17 17 16 17 17 19 18 18 17 16 13 12
7 7 7 6 8 7 11 12 14 14 10 9 7 8 13 12 8 6 5 8 9 11 12 14 14 14 14 15 15 15 15 14 15 16 16 15 16 17 16 18 17 16 17 16 15 14 14 13 11
8 9 6 5 14 13 14 16 15 13 13 8 8 10 15 14 11 8 7 9 10 11 11 12 13 13 14 14 14 14 14 15 16 15 16 15 15 14 14 14 15 14 14 13 12 12 12 10 8
8 11 11 3 7 12 15 16 15 13 10 9 9 12 14 15 14 11 10 10 12 11 11 11 13 13 14 15 15 14 16 16 17 17 17 15 14 13 13 12 12 11 11 10 8 9 7 7 8
9 12 14 8 6 10 13 19 12 10 13 10 13 12 17 15 15 15 13 12 14 13 12 11 13 13 15 15 16 17 18 17 18 19 17 15 13 12 11 12 12 12 10 10 10 9 8 7 6
15 15 13 11 10 6 7 14 14 12 10 13 13 13 16 17 14 14 12 10 14 14 12 12 13 13 15 16 17 18 19 18 17 18 16 14 12 10 11 11 11 10 9 9 9 9 7 7 5
20 18 17 17 12 9 11 13 8 9 10 12 14 14 15 19 16 17 15 13 14 14 14 13 14 14 15 17 19 16 17 17 17 18 15 13 12 11 10 10 10 9 13 13 13 12 9 7 5
20 23 20 19 15 15 8 12 12 11 9 12 13 14 17 16 19 17 15 12 14 14 15 15 16 16 17 18 20 16 14 16 14 11 15 14 12 10 8 8 10 13 17 14 13 11 9 7 5
25 27 26 23 17 17 14 9 16 12 11 13 15 17 16 16 16 16 16 14 15 15 15 16 16 16 19 20 18 18 16 17 13 14 14 13 12 12 10 8 11 14 15 13 12 13 12 10 7
32 31 28 23 20 16 14 11 14 14 13 14 15 15 17 17 18 19 18 17 19 19 17 18 18 17 20 21 18 18 16 15 12 13 13 12 11 11 10 9 11 12 13 15 14 13 15 15 14
35 35 29 22 20 20 14 15 19 15 13 11 14 16 15 17 20 20 18 18 16 19 20 19 19 18 21 24 18 18 17 16 13 12 13 12 10 10 10 11 11 12 13 17 19 16 16 18 17
41 39 28 25 23 23 17 17 18 13 12 10 12 13 14 14 15 20 18 19 19 22 21 22 21 21 23 24 19 16 17 16 14 13 12 10 10 10 11 12 13 15 14 17 20 19 17 17 16
35 34 30 27 26 26 27 20 18 16 16 15 15 15 11 10 12 17 18 21 21 23 23 23 23 24 24 24 19 15 16 16 15 14 11 10 10 12 13 13 13 15 15 16 18 19 18 16 14
32 33 33 35 32 29 28 31 27 22 23 21 20 16 15 12 8 13 14 19 24 24 22 23 23 24 24 23 19 17 17 15 15 14 12 10 10 14 14 13 13 14 14 15 15 16 17 15 13
34 34 34 36 39 36 33 31 33 27 26 28 26 21 20 17 13 11 12 14 24 27 26 25 25 25 28 27 26 23 21 18 15 14 13 11 11 12 12 13 13 13 13 13 13 15 15 13 13
37 35 33 37 40 40 37 38 37 30 32 28 26 24 23 21 17 15 12 15 23 28 28 27 27 28 29 29 26 22 20 17 16 16 14 12 12 13 12 11 11 12 11 10 10 12 14 13 12
40 34 35 38 43 44 41 43 41 36 34 31 32 30 24 21 21 18 17 17 22 31 33 31 29 29 30 28 27 25 23 22 20 19 17 14 12 12 12 12 11 10 9 8 9 8 10 13 13
36 42 38 39 45 47 49 51 44 43 40 33 28 22 25 22 22 23 21 22 27 34 36 35 32 30 30 29 28 27 25 21 17 18 17 15 13 12 12 11 10 9 8 7 7 6 7 10 12
45 45 47 45 48 60 51 52 48 48 36 32 33 30 31 25 24 26 25 27 30 34 38 37 34 32 30 30 28 28 27 21 18 18 16 15 14 13 11 11 9 8 9 9 7 5 4 7 8
53 52 52 50 55 56 51 59 47 44 42 37 31 34 29 26 22 21 23 25 26 28 36 36 35 33 31 31 30 31 28 22 21 20 18 16 16 16 13 10 9 8 8 9 9 8 5 5 7
55 56 56 55 56 54 54 62 45 41 41 40 38 38 37 32 27 22 20 27 29 28 34 36 35 33 30 31 31 32 29 26 22 20 20 18 18 16 14 12 9 7 5 5 6 7 7 5 7
59 62 52 56 56 57 60 56 43 41 47 45 44 42 38 33 29 23 24 26 28 30 32 35 35 33 31 30 32 33 30 27 22 21 22 20 19 19 15 12 10 7 4 2 2 3 5 6 6
62 58 65 60 61 63 64 54 42 40 44 45 48 44 39 37 34 30 27 24 28 30 33 36 38 35 33 33 31 31 31 28 25 22 23 22 21 19 15 12 10 9 6 3 1 1 0 3 5
66 64 64 64 63 63 64 61 40 35 35 48 49 42 42 38 34 30 27 26 29 32 34 35 37 36 37 36 33 32 32 29 24 24 24 23 22 19 16 13 11 9 8 6 5 4 3 0 1
66 67 68 67 66 66 65 64 41 37 40 47 48 46 42 37 33 30 27 30 30 31 33 35 37 36 37 37 34 33 33 30 26 25 24 25 22 20 18 15 14 12 10 9 8 6 5 3 3

GFSSGP_500_spd_069.txt.gz
Wind_Speed
21 14 10 8 6 10 9 6 5 4 5 12 10 12 12 8 11 9 9 8 7 6 9 11 11 14 14 15 17 17 16 16 15 14 12 11 10 10 10 10 9 6 3 4 5 6 7 8 8
12 10 9 6 9 5 9 7 6 6 5 7 9 12 11 10 9 9 9 7 7 6 8 11 11 14 15 16 16 15 14 14 13 12 11 10 11 13 12 11 8 7 5 7 8 7 8 9 7
11 10 7 4 9 7 7 6 6 5 7 5 4 10 12 9 7 6 7 7 8 7 8 11 11 13 15 16 16 15 13 14 11 10 10 10 12 13 12 13 11 9 6 7 11 9 8 8 9
11 10 5 8 7 6 3 5 8 5 3 3 3 9 18 11 8 7 6 8 9 8 8 10 11 12 14 15 15 14 13 12 10 9 9 10 13 13 14 14 15 14 13 12 14 9 8 11 12
11 10 7 6 4 5 4 7 7 5 2 4 3 16 15 10 7 5 5 7 9 8 8 10 10 12 13 13 13 13 12 10 9 8 10 11 14 15 14 15 16 18 18 17 14 12 12 12 12
9 11 9 4 2 4 6 8 7 5 3 4 6 17 12 9 8 5 3 7 7 8 8 10 10 11 12 12 12 11 10 8 9 10 11 13 14 15 14 16 17 17 17 17 15 14 12 11 11
8 9 10 9 9 7 9 10 8 8 6 4 6 14 11 7 5 5 4 7 9 8 7 9 10 11 11 10 11 11 11 10 10 10 12 12 13 13 13 15 14 14 13 15 14 12 12 11 10
6 7 8 9 9 17 10 11 13 12 9 8 4 8 12 8 6 5 6 8 9 9 7 7 9 11 12 11 11 11 11 12 12 11 13 12 12 11 11 10 11 10 10 10 10 11 11 10 9
6 7 9 9 11 16 8 13 12 13 14 15 12 7 12 9 9 8 8 10 11 11 9 8 9 11 11 11 12 12 12 12 12 11 11 10 10 9 8 7 8 8 9 8 8 8 9 9 9
9 10 8 10 11 12 15 14 14 14 13 12 11 8 12 12 13 12 12 14 13 13 12 10 9 10 11 11 11 14 12 12 12 11 10 8 9 8 8 8 9 7 7 6 7 9 8 12 8
14 15 19 16 10 8 9 14 16 15 13 3 8 9 14 15 14 12 12 14 16 14 14 12 12 11 12 13 13 14 14 12 11 10 9 9 9 8 7 7 6 6 7 8 8 8 7 13 3
20 18 17 16 15 11 10 11 13 16 10 4 10 13 13 18 16 14 12 14 15 16 15 14 14 14 13 14 14 15 15 13 12 10 9 9 8 7 10 8 10 10 9 5 8 5 5 7 7
23 23 19 18 16 12 9 12 10 10 6 7 11 13 15 18 18 16 16 17 16 17 16 15 16 15 16 16 16 15 15 14 12 9 9 9 7 8 11 12 12 10 10 9 12 6 5 3 7
28 26 22 19 16 14 12 10 11 12 11 8 12 15 15 17 19 16 15 16 18 18 18 17 18 17 18 16 15 15 16 13 10 9 9 9 8 9 12 12 9 11 11 4 8 8 10 8 8
28 26 25 21 18 17 15 15 11 16 13 11 14 17 16 16 18 20 19 18 20 19 20 19 19 18 20 16 15 15 14 11 12 9 9 9 9 10 11 11 10 11 10 8 10 12 12 11 9
27 29 25 21 22 20 18 13 16 14 13 12 16 18 18 17 21 21 19 17 19 19 20 21 20 20 20 17 15 17 14 14 12 11 10 8 8 8 10 12 13 12 11 12 10 13 11 12 12
30 30 23 23 21 24 23 20 27 23 13 11 14 17 18 21 23 22 20 18 17 19 19 21 21 22 21 18 18 16 13 14 13 12 10 8 9 11 11 12 13 12 14 11 10 11 10 9 10
26 27 26 26 26 22 24 24 32 11 15 14 13 16 18 21 21 22 21 19 18 19 20 21 21 22 22 19 18 16 15 14 14 12 9 9 11 13 12 11 12 12 13 13 12 10 9 7 9
27 26 26 24 29 29 26 24 32 11 21 18 17 15 16 18 21 22 23 22 20 18 20 19 21 22 24 19 19 17 16 15 14 12 11 10 10 11 11 8 10 10 12 13 14 10 11 10 9
34 34 28 30 25 33 31 28 30 22 25 23 20 16 17 16 15 16 19 21 21 21 22 21 22 23 26 24 21 18 16 16 15 13 11 12 11 10 11 9 9 8 9 10 11 12 13 12 12
38 35 32 31 33 39 36 31 33 25 32 29 25 22 19 15 16 12 16 19 22 23 22 23 23 25 26 27 21 20 19 18 17 15 12 13 12 12 11 10 8 6 8 9 9 10 11 10 11
39 37 37 38 39 33 41 37 35 39 29 35 30 26 22 21 18 12 15 17 21 24 25 26 25 27 27 28 25 22 21 20 19 17 14 14 12 12 11 11 8 5 6 7 8 8 10 7 6
42 42 42 42 43 44 36 42 30 37 37 38 34 30 26 24 20 14 16 16 19 23 26 28 27 29 29 28 27 24 23 22 20 17 15 15 13 11 10 10 8 6 4 4 7 8 9 8 6
50 48 48 48 47 51 47 41 42 39 36 35 40 36 30 28 22 19 19 22 21 20 23 28 29 30 30 29 27 26 25 23 20 19 17 15 13 12 11 9 9 7 5 3 4 7 8 8 7
57 53 52 51 51 53 46 49 43 37 31 33 37 39 36 32 28 27 21 19 20 21 20 25 30 30 31 31 29 27 26 23 20 21 18 15 14 12 11 10 9 6 4 3 3 5 7 8 8
63 59 55 51 45 52 47 52 52 43 36 35 32 43 40 37 34 31 25 23 21 22 25 26 29 31 31 32 31 29 28 25 22 21 20 18 16 14 12 10 9 7 4 2 2 5 8 10 9
46 53 58 36 30 38 37 43 46 42 51 49 39 43 40 41 41 33 29 26 23 23 23 27 31 35 34 32 32 32 30 27 22 22 21 20 18 17 16 12 9 7 5 3 2 3 7 9 9
52 36 51 48 42 39 37 34 36 44 50 51 53 43 44 38 43 36 34 30 24 22 21 26 31 36 37 36 33 33 32 28 25 24 22 22 19 18 18 15 12 9 7 5 4 3 3 6 8
46 54 46 42 47 40 33 34 30 30 40 50 47 51 44 34 41 38 36 32 28 26 23 23 30 35 39 37 35 34 34 31 29 27 23 22 21 19 20 18 15 12 11 9 7 6 5 4 7
48 33 48 42 43 47 36 30 26 28 27 39 43 47 47 44 41 37 39 37 34 31 24 22 27 32 36 38 37 35 36 36 32 30 26 23 22 22 22 21 18 15 14 12 11 10 8 7 6

GFSSGP_500_spd_072.txt.gz
Wind_Speed
21 16 11 6 5 8 2 15 12 7 9 11 9 9 8 6 7 5 5 6 7 9 9 9 12 14 15 17 16 16 15 14 14 13 12 10 10 10 9 7 5 4 4 6 7 8 8 8 6
14 11 6 5 5 10 12 14 9 8 10 7 9 9 6 6 5 3 5 6 7 9 9 10 11 13 14 15 14 15 14 13 13 12 11 11 12 11 9 8 6 4 4 6 8 8 10 9 8
10 8 5 6 9 10 12 10 7 6 5 4 4 8 8 4 2 2 2 5 8 9 9 9 11 12 12 13 13 14 12 12 12 11 13 12 13 12 13 12 9 8 8 9 9 9 9 9 10
11 6 1 1 8 3 11 3 5 5 5 2 2 5 10 5 3 1 1 5 8 9 8 9 11 11 12 12 12 12 11 11 11 12 14 13 14 15 16 16 15 15 14 13 10 9 11 10 11
10 5 4 3 8 15 7 3 6 5 4 4 1 6 11 5 3 2 3 5 7 8 8 9 11 11 11 11 11 11 11 11 12 13 14 13 15 16 15 17 19 19 18 14 12 12 12 11 10
10 8 4 6 4 8 1 4 4 2 2 4 1 13 8 2 2 1 2 4 6 7 8 8 11 11 10 11 11 11 11 13 13 14 14 14 14 14 15 18 19 20 18 15 14 13 12 11 11
8 8 6 17 8 3 2 2 3 4 2 4 3 11 7 4 2 2 1 3 6 6 8 8 10 11 11 12 12 12 12 14 13 14 14 13 12 13 15 15 17 17 15 14 12 13 12 12 12
9 9 8 8 9 20 12 4 8 6 5 3 5 8 7 5 5 5 2 4 5 6 8 9 9 11 12 13 12 12 13 12 13 13 12 12 10 11 13 12 13 13 10 9 8 9 10 9 11
9 9 8 8 4 12 7 8 13 10 6 5 11 6 9 8 8 7 5 5 5 7 9 9 9 11 12 12 11 12 11 10 11 11 10 10 9 10 10 10 11 11 9 8 8 8 6 6 9
10 8 9 2 9 11 10 11 19 8 6 8 8 8 8 11 10 9 8 5 7 7 9 10 9 10 11 10 10 10 9 10 9 10 9 9 8 8 8 10 8 7 8 9 10 10 6 6 13
14 12 7 11 3 7 8 8 10 6 11 9 11 8 9 12 11 9 9 6 7 8 8 9 9 10 11 11 10 10 10 10 9 9 4 8 8 9 5 7 9 11 6 7 13 10 6 9 18
18 15 18 14 12 7 8 11 12 7 11 11 7 8 10 13 13 11 9 6 8 9 9 10 10 9 12 11 10 9 10 10 9 8 8 8 5 7 8 12 7 8 7 3 13 10 2 14 16
20 19 17 15 9 13 8 10 21 2 10 9 8 7 12 13 14 13 10 9 9 10 11 11 10 10 11 11 11 12 11 10 8 7 8 10 7 8 12 11 11 13 8 9 9 7 9 8 8
23 25 21 17 18 12 11 13 15 8 8 8 7 10 13 12 12 12 11 9 10 11 12 13 11 10 11 11 11 9 12 8 9 6 8 9 8 9 13 6 11 10 10 12 12 12 12 9 9
22 24 25 21 18 15 16 12 11 21 18 8 10 11 11 12 11 13 14 11 11 12 14 13 13 12 12 10 9 10 11 7 7 9 9 8 10 9 9 10 13 11 14 14 17 13 9 11 10
25 22 20 21 21 20 20 15 21 21 13 14 11 9 11 11 13 15 14 12 10 12 14 14 15 14 14 10 10 11 10 9 7 9 10 11 10 10 12 11 11 11 13 12 15 11 12 12 11
23 22 19 20 19 20 21 16 22 24 18 19 11 10 13 13 15 16 15 12 10 12 15 16 16 16 15 11 11 10 10 10 9 8 10 9 7 6 15 12 13 13 12 9 11 9 12 10 8
22 20 23 21 21 23 23 24 25 27 19 19 13 11 12 13 14 16 15 14 12 11 15 17 16 17 15 15 12 10 11 10 9 8 9 10 9 11 13 10 10 11 11 11 9 9 9 9 8
23 22 20 25 23 22 24 24 27 27 28 15 18 9 10 11 12 15 16 16 15 13 14 16 17 17 17 16 15 12 12 12 11 8 10 11 11 10 10 10 8 11 13 13 11 12 11 8 8
27 27 27 20 24 23 26 24 29 27 31 28 16 12 11 11 6 11 12 15 16 16 16 17 18 19 21 17 16 15 14 14 12 9 9 9 11 9 9 10 8 9 10 10 11 11 12 15 11
29 31 27 26 22 24 25 26 32 32 21 22 16 17 17 12 7 10 7 13 16 17 18 19 19 21 21 21 17 16 15 14 12 10 9 9 10 9 8 7 8 7 6 7 7 8 9 12 11
33 32 32 32 32 32 28 30 31 31 28 23 31 25 20 15 10 9 6 6 15 17 21 22 21 23 23 24 19 17 18 16 13 11 9 9 9 9 8 7 6 6 5 4 4 5 5 6 8
39 37 36 38 39 39 34 30 33 33 41 37 44 25 23 19 17 13 11 9 11 14 19 23 23 23 23 25 24 19 18 18 15 12 10 10 9 8 6 6 4 4 5 3 2 2 2 3 4
46 45 44 41 43 47 43 39 32 33 35 35 29 32 30 26 21 20 18 14 11 11 13 18 23 22 23 24 25 23 20 19 18 15 13 11 9 7 6 6 4 3 1 0 1 2 1 1 1
51 50 48 48 47 49 43 46 46 30 30 33 30 34 28 31 24 24 24 17 15 13 13 13 19 23 23 25 24 24 23 21 20 19 16 13 11 9 7 6 5 2 1 0 1 3 2 2 3
55 53 51 49 48 49 42 48 42 37 33 30 38 31 31 29 31 27 27 21 20 16 13 13 16 22 23 25 25 25 24 22 20 20 18 16 13 11 10 8 7 4 2 3 4 3 3 3 4
49 40 53 42 30 44 31 32 40 39 38 34 32 34 47 38 31 30 31 26 23 20 16 16 18 22 27 27 27 27 25 23 21 20 20 18 16 13 12 10 8 5 4 3 4 4 1 3 4
34 46 34 44 40 39 33 30 30 34 42 45 43 37 37 34 38 32 35 31 26 24 21 20 21 23 28 32 30 29 29 26 24 22 20 20 18 15 14 12 10 7 5 4 3 3 1 3 5
36 41 44 36 39 43 36 29 19 30 29 33 43 49 55 51 39 27 33 33 31 27 26 18 18 25 28 31 31 30 28 29 27 24 22 20 19 17 17 15 14 10 8 6 4 3 2 3 4
36 34 38 44 42 44 46 27 26 26 32 37 40 43 50 41 35 37 41 34 35 29 25 20 15 19 25 29 34 32 31 31 29 26 24 22 21 21 20 18 17 15 12 10 7 5 3 4 5

GFSSGP_500_spd_075.txt.gz
Wind_Speed
14 11 8 5 4 4 11 20 8 7 8 12 10 13 7 8 8 6 6 9 9 10 11 12 13 14 16 15 14 12 13 12 11 10 10 11 10 10 8 8 6 6 9 10 10 10 9 8 6
15 9 5 4 4 7 12 15 12 11 11 6 6 7 6 7 4 6 8 9 9 10 11 12 12 13 14 14 13 13 12 10 10 11 13 12 13 11 10 9 7 6 9 10 10 10 10 8 8
10 5 3 8 10 5 12 14 13 7 9 4 8 6 5 4 6 8 8 8 9 9 10 12 12 12 12 12 13 13 11 11 13 14 14 13 14 15 15 13 11 11 13 11 10 10 10 10 12
9 5 2 11 7 10 8 12 9 7 4 4 6 5 5 3 5 8 9 7 9 9 9 10 12 11 12 11 12 11 12 13 14 15 15 16 18 19 20 20 18 18 15 11 11 13 12 13 14
10 4 4 4 17 15 10 7 11 7 5 4 5 9 8 4 6 9 8 7 8 9 9 9 11 11 11 10 10 10 13 15 15 15 16 17 18 19 21 21 20 18 16 15 14 12 12 13 13
8 7 3 15 20 15 15 12 8 5 6 4 9 16 8 3 7 9 7 6 8 9 9 9 10 10 11 10 10 12 13 14 14 14 16 16 17 17 18 19 18 17 16 15 14 13 12 12 12
8 9 7 11 15 16 16 10 7 7 4 7 9 13 5 2 5 9 5 5 7 8 9 10 10 11 12 11 12 13 14 13 14 14 15 15 14 16 16 14 13 13 12 13 13 13 13 11 9
9 12 9 4 4 12 19 6 11 17 2 6 7 9 4 2 4 7 6 3 6 8 8 10 11 11 12 12 14 14 14 13 13 12 12 12 12 12 11 11 9 9 10 11 13 13 13 12 11
12 11 10 0 7 10 16 1 16 3 5 4 3 4 5 3 3 6 5 2 6 6 8 10 11 11 12 13 13 13 13 12 11 9 10 11 11 10 8 9 10 8 7 11 12 14 13 10 8
13 7 8 2 7 8 7 8 18 13 5 1 5 11 5 4 3 3 5 4 4 6 8 11 11 11 11 12 12 11 12 10 8 9 10 8 9 9 7 7 7 7 6 12 14 17 12 7 8
14 12 9 7 7 5 10 9 17 11 5 2 6 7 4 4 2 2 3 4 2 5 8 10 11 9 9 10 10 9 10 9 9 7 10 8 10 5 7 3 7 7 6 8 13 17 7 5 7
16 14 14 14 10 4 8 7 18 14 6 4 7 7 4 4 2 1 1 2 3 5 7 9 10 10 9 10 11 9 10 9 9 9 9 11 12 8 8 7 9 11 10 12 15 17 19 13 9
17 17 15 12 8 10 9 9 15 12 5 10 9 7 6 4 2 2 0 1 1 6 5 8 7 10 9 10 11 9 9 9 10 6 3 15 13 12 8 10 13 5 16 15 14 11 15 17 13
21 22 18 15 12 7 14 13 10 6 6 8 5 7 8 7 3 5 2 1 2 6 6 7 8 9 10 10 10 10 8 9 9 7 11 13 14 9 11 13 15 17 17 17 17 14 17 17 14
22 19 24 19 15 12 12 18 10 5 14 10 5 8 7 6 6 6 4 2 2 6 6 7 7 8 8 8 7 10 7 8 9 10 9 11 13 11 14 12 14 17 15 17 18 16 17 16 16
24 20 14 18 18 16 15 24 16 13 2 9 8 8 8 10 9 7 7 3 2 4 6 6 8 7 8 5 7 7 5 7 8 10 11 10 11 13 12 15 14 15 18 12 14 15 16 14 15
20 18 16 15 17 21 21 23 16 22 15 19 16 11 13 11 9 8 8 7 4 3 6 8 8 9 8 6 7 5 5 6 10 10 10 8 8 16 13 15 14 12 14 13 11 12 15 13 11
20 18 20 17 18 21 22 23 22 24 21 26 29 16 14 11 10 8 8 6 6 6 6 8 9 10 8 6 5 7 8 6 7 10 10 9 11 14 13 14 16 11 14 12 12 14 14 15 12
21 26 26 26 18 24 22 23 20 24 20 22 14 11 12 11 13 9 9 8 8 9 9 10 11 11 11 9 8 9 8 7 7 7 7 8 12 11 11 11 14 16 14 12 12 12 13 16 16
26 24 24 25 23 15 18 22 24 22 19 20 20 10 16 12 10 9 9 9 8 10 13 13 14 14 15 12 11 10 10 8 8 7 7 7 10 10 9 10 12 12 13 13 13 14 14 14 14
26 27 23 23 27 23 21 22 29 26 23 23 19 20 17 16 10 9 8 9 8 10 13 16 17 17 17 15 12 12 12 10 9 9 8 7 9 9 9 8 7 7 10 11 11 12 15 16 14
29 27 26 25 30 32 29 30 30 32 30 23 22 24 22 20 12 11 10 10 7 11 11 18 19 19 19 19 15 15 15 15 11 8 8 8 7 8 7 5 4 6 8 9 8 9 12 14 13
34 34 32 33 33 34 37 38 35 33 32 26 31 37 31 23 18 10 12 11 10 8 8 16 22 19 20 20 19 17 16 15 13 10 9 11 8 6 5 2 2 4 6 7 5 6 10 9 11
42 40 38 37 39 43 32 40 36 35 27 30 33 25 38 23 20 18 16 12 12 8 5 8 18 21 20 21 22 19 18 17 15 12 10 9 8 7 5 3 1 2 4 4 3 3 5 7 9
46 44 45 43 43 38 33 42 36 33 31 25 26 30 20 23 22 21 16 12 10 11 12 10 13 21 20 20 23 23 20 19 17 15 11 10 9 7 5 3 1 1 3 3 2 2 3 4 6
46 49 47 48 44 39 38 41 30 29 30 31 30 29 26 22 28 26 19 16 14 11 14 14 14 19 22 21 23 24 23 21 21 19 16 13 11 9 7 5 2 1 1 2 2 2 2 3 5
42 47 45 49 49 50 46 35 34 30 29 34 31 33 30 28 23 30 28 23 20 14 13 16 18 17 22 24 25 25 25 23 22 21 19 17 14 13 10 7 5 2 2 2 4 4 2 3 3
38 43 44 46 49 54 52 45 38 19 12 24 37 35 32 29 33 36 38 28 27 21 19 16 17 18 20 26 25 26 25 24 24 23 21 20 18 16 13 11 8 5 3 3 2 3 2 2 2
32 33 41 45 48 50 51 53 40 20 16 21 32 36 39 36 36 40 33 30 36 27 24 20 15 18 18 20 26 26 27 26 24 22 22 22 20 18 18 14 11 8 6 4 3 2 0 0 2
46 44 34 43 47 50 53 61 27 22 28 25 14 24 29 36 39 44 43 43 48 32 27 19 15 15 20 25 25 29 30 30 27 24 23 22 22 21 21 16 13 11 9 7 6 4 3 3 2

GFSSGP_500_spd_078.txt.gz
Wind_Speed
10 10 8 5 4 7 8 11 6 11 13 14 12 10 6 8 9 8 8 10 8 10 12 13 15 14 14 12 11 10 10 11 11 11 11 10 10 9 9 8 8 9 9 9 9 8 8 9 11
12 9 9 4 6 10 12 15 11 13 16 10 8 8 6 8 9 7 10 10 9 10 12 13 13 13 12 11 11 11 11 11 12 12 12 12 12 10 9 9 9 10 9 10 9 9 9 10 11
12 8 9 5 11 8 23 18 12 13 11 10 12 5 6 7 9 8 11 11 9 10 13 13 12 12 10 10 11 11 11 12 13 12 13 13 14 12 11 11 12 14 11 9 9 10 11 11 12
8 4 12 11 8 12 20 17 16 12 6 4 5 7 3 7 10 9 11 10 9 11 12 12 12 12 10 11 10 10 11 13 13 13 14 16 17 17 16 17 17 15 11 11 13 12 13 13 11
10 4 13 11 18 13 26 18 14 13 9 5 9 10 7 8 9 11 11 9 9 12 11 12 11 11 10 11 10 11 13 14 14 14 14 17 17 17 18 17 16 14 13 14 13 13 12 12 12
6 6 10 9 12 15 17 12 13 11 10 6 11 13 11 7 8 11 11 9 9 12 11 12 11 10 10 11 12 12 13 14 14 13 15 13 14 15 16 17 15 13 12 12 14 13 12 13 11
9 8 5 7 12 3 13 20 14 12 9 8 18 13 11 6 7 12 10 9 10 10 11 11 11 10 11 12 12 12 12 14 13 12 13 12 11 13 14 14 13 11 11 11 13 15 14 12 10
11 9 5 6 5 8 4 9 17 14 13 11 12 12 9 7 4 10 9 9 9 10 11 12 10 10 12 13 13 12 12 13 13 11 9 7 10 13 12 12 11 11 9 9 10 11 13 14 13
10 8 7 5 6 10 5 3 16 16 16 11 10 4 4 7 2 11 9 8 9 9 10 12 11 11 12 13 12 12 12 11 10 8 8 8 8 12 11 12 13 11 7 7 9 10 11 13 15
8 9 11 10 10 8 15 2 15 15 11 9 5 8 4 6 1 10 8 8 8 8 9 11 11 10 11 11 12 10 10 9 7 6 8 9 7 9 10 14 11 9 6 6 11 13 10 12 15
14 14 15 14 10 6 12 8 5 16 6 5 7 8 4 9 4 7 6 7 8 6 7 9 11 9 9 9 9 8 9 7 6 6 6 8 14 9 10 9 7 2 3 4 8 14 19 11 10
16 14 17 12 8 4 5 4 5 6 10 7 6 5 3 10 5 4 7 7 8 6 6 6 9 9 8 8 8 8 8 5 8 9 8 14 17 14 16 10 9 15 8 9 9 14 12 9 14
17 17 16 13 8 5 6 2 8 12 2 4 5 5 5 9 5 3 7 6 8 8 5 6 6 9 9 8 8 9 7 6 9 8 9 15 15 14 11 17 15 12 14 15 14 16 18 14 15
22 23 20 16 14 8 9 5 2 5 4 6 6 7 6 6 5 7 8 4 7 8 7 7 7 8 9 10 9 7 6 7 10 10 12 13 15 17 16 16 14 18 17 18 16 18 17 13 17
23 21 19 15 16 12 9 4 8 4 10 6 5 8 7 7 8 9 11 7 6 8 7 7 9 9 10 8 8 10 7 8 10 9 13 9 16 17 16 17 16 18 20 16 17 19 18 15 18
24 17 12 12 15 14 13 11 8 7 6 9 7 5 9 10 12 8 12 9 7 7 8 8 9 10 9 7 8 9 7 9 8 11 12 11 15 16 15 15 17 17 16 18 13 16 18 15 15
18 17 16 12 10 17 18 15 7 7 8 7 8 10 12 10 10 9 13 12 9 10 10 11 10 11 10 8 10 8 8 9 11 11 10 10 12 13 16 15 15 15 18 18 14 13 17 16 16
19 21 24 23 16 12 18 19 14 16 8 6 13 16 13 14 10 13 14 14 9 10 10 10 12 11 11 9 9 10 11 10 11 12 7 10 11 13 14 16 17 17 15 16 16 17 17 18 17
22 24 20 25 24 22 18 18 17 15 6 8 14 14 13 17 13 17 14 16 11 10 11 10 11 11 12 11 10 11 10 10 9 10 9 10 9 10 14 15 18 17 16 15 15 17 17 18 19
26 24 20 23 28 24 22 16 15 14 9 6 3 9 13 12 10 14 16 16 14 13 12 14 13 13 14 12 9 9 9 8 9 8 9 10 9 10 11 14 15 16 16 16 15 15 16 17 17
28 27 23 26 31 23 25 22 18 14 15 14 7 12 12 11 9 14 16 13 13 12 14 13 14 15 15 12 11 10 9 7 8 8 7 8 8 9 10 12 12 12 13 15 16 16 14 16 15
27 25 26 26 31 29 29 28 24 20 19 17 12 21 15 13 11 11 15 13 14 15 16 16 15 15 16 15 13 13 13 11 8 7 8 9 8 7 8 8 9 10 11 12 14 14 15 17 17
32 30 27 28 33 35 32 31 29 25 22 16 15 11 16 23 18 14 14 16 17 14 16 19 18 16 16 18 15 14 13 12 10 8 6 8 8 6 5 5 6 7 8 9 9 11 12 14 16
37 37 35 33 35 34 32 33 30 26 23 18 12 10 13 24 22 18 17 14 13 12 13 16 19 18 18 18 19 16 16 14 12 11 10 10 8 6 3 3 4 6 6 6 6 8 8 11 12
40 40 39 36 36 32 33 38 27 24 29 22 18 11 11 13 23 19 16 14 14 13 13 13 17 20 19 19 19 20 18 18 16 15 12 10 10 8 4 2 4 4 5 4 4 6 8 9 10
43 43 43 40 36 36 37 40 23 28 29 26 23 17 15 10 25 21 19 17 19 15 12 12 16 21 22 22 22 24 21 19 18 17 14 12 11 8 5 3 1 3 4 3 4 5 6 7 8
42 44 41 44 43 44 43 35 24 33 39 31 27 25 20 20 20 27 28 23 25 22 15 14 15 18 24 25 26 24 25 22 20 19 18 16 13 11 9 6 2 1 3 3 3 4 5 5 7
45 43 42 45 44 47 46 38 30 26 35 32 39 37 32 30 25 25 25 33 28 29 25 19 16 14 20 27 26 26 25 26 24 21 20 20 17 15 12 10 7 3 1 3 3 2 4 4 4
40 41 47 49 49 47 47 44 27 30 32 31 36 40 35 34 25 20 21 27 31 28 27 25 20 17 16 18 27 27 27 26 25 24 23 22 21 19 16 13 10 7 5 4 4 3 2 3 4
36 38 39 44 47 51 49 45 34 37 38 37 34 32 33 32 17 18 20 26 27 38 30 25 24 20 19 21 23 28 28 29 27 26 25 24 22 22 20 16 13 11 9 7 7 5 5 3 3

GFSSGP_500_spd_084.txt.gz
Wind_Speed
3 7 7 6 5 8 1 1 7 10 12 9 9 10 10 10 10 9 9 8 9 12 13 13 15 14 14 13 12 12 11 12 11 9 8 6 5 4 5 8 8 9 10 10 9 10 10 10 11
7 7 8 11 14 9 11 9 10 15 11 11 9 9 10 9 8 7 9 10 9 11 13 13 13 14 13 13 12 11 12 13 12 11 11 10 8 6 4 7 8 9 9 10 9 9 10 10 11
6 4 5 11 7 8 11 16 13 17 14 11 10 10 9 8 6 7 9 11 10 9 12 12 12 13 12 11 12 13 13 14 14 16 16 15 13 10 9 10 9 7 8 8 9 10 11 11 11
8 9 14 14 13 6 23 16 15 14 13 12 10 9 8 7 6 7 9 10 11 9 11 11 12 12 11 11 13 13 14 15 17 18 19 19 18 16 15 13 9 9 10 10 10 10 12 12 11
3 14 15 18 3 30 20 21 18 14 13 13 10 10 6 5 5 7 8 10 12 11 10 11 11 11 11 11 12 13 14 15 15 16 16 17 16 18 15 12 12 12 11 13 11 10 11 11 9
2 9 12 15 13 23 24 23 19 18 16 15 14 12 8 8 6 9 9 10 11 11 11 11 11 11 11 11 12 12 14 13 12 13 14 14 14 14 14 13 12 11 10 10 11 10 10 9 7
4 5 10 12 8 15 17 17 14 11 13 16 16 14 11 9 9 8 9 9 10 9 11 11 11 11 12 12 11 12 12 11 11 11 12 11 12 11 10 11 12 11 10 9 9 10 9 8 7
6 2 4 17 17 9 4 12 13 10 15 18 16 14 13 12 13 9 8 9 9 8 9 10 10 11 12 11 11 11 10 10 10 11 11 10 10 10 9 9 9 10 10 9 10 10 8 6 4
8 6 2 3 7 2 1 8 17 14 16 19 15 13 8 12 16 11 10 10 9 9 8 11 10 12 13 13 12 10 10 10 11 10 10 10 9 10 11 9 10 9 8 9 10 10 9 9 10
10 9 4 1 2 6 10 5 17 18 23 19 15 15 13 9 14 13 12 11 9 9 9 10 10 11 13 13 12 10 10 11 11 10 10 8 9 11 11 9 9 10 10 8 10 11 10 10 10
12 10 7 7 2 2 10 18 16 10 21 17 12 13 17 12 12 12 9 10 9 10 9 10 11 12 12 12 10 12 12 11 10 9 13 12 9 5 7 7 7 8 10 11 14 10 11 10 9
17 13 12 9 7 1 6 11 7 12 19 17 14 10 14 17 12 14 12 12 12 10 8 10 11 11 13 12 11 13 11 9 10 14 12 10 12 12 11 13 10 11 8 5 14 13 12 10 10
20 21 15 9 7 3 6 2 6 14 20 18 13 12 12 13 15 12 10 11 11 11 9 9 10 11 13 13 12 13 12 13 10 11 14 15 13 15 16 11 9 13 11 11 9 11 13 12 11
25 22 13 10 10 7 9 5 16 16 20 16 15 14 15 14 16 16 14 12 12 11 10 10 10 12 13 13 12 13 13 11 12 13 15 14 14 17 17 13 12 9 10 14 15 14 13 13 13
28 23 16 15 12 8 10 8 14 12 16 16 17 13 11 12 13 13 14 14 13 14 12 11 11 12 13 13 13 12 13 12 14 15 16 15 16 17 16 14 13 12 11 12 12 13 14 14 14
24 21 18 14 14 16 14 12 9 12 14 13 10 11 12 12 12 12 11 12 13 14 14 13 13 13 13 13 10 12 13 12 15 16 17 15 16 17 17 15 13 13 14 12 12 13 14 15 15
24 22 19 16 15 17 19 16 12 15 17 18 13 11 9 6 9 13 13 13 15 15 15 15 14 14 14 12 10 13 12 12 16 15 14 17 15 14 16 17 15 14 14 15 15 12 13 15 15
25 26 24 21 20 18 17 14 13 21 18 17 16 14 9 9 12 14 15 14 16 15 16 14 14 12 13 14 9 11 13 12 14 14 13 15 15 14 15 16 17 15 13 12 15 13 14 15 17
24 27 28 25 26 23 17 18 21 19 21 19 19 15 13 11 14 14 14 15 15 16 16 17 17 14 13 15 12 12 13 12 13 14 12 14 15 15 14 16 15 17 15 14 14 13 13 14 16
28 30 29 29 29 26 21 20 21 20 18 18 14 15 21 16 13 14 15 15 15 19 18 19 19 16 13 12 12 13 13 13 12 13 12 14 15 17 16 15 14 13 16 15 16 15 13 15 15
27 29 29 31 29 24 20 19 19 20 16 16 15 18 22 19 18 16 18 18 16 15 16 19 19 16 14 12 12 14 15 13 13 11 14 14 14 17 16 16 14 13 11 14 15 15 15 14 16
27 27 30 30 29 27 23 21 20 17 15 16 16 20 19 17 17 19 19 18 18 17 16 17 18 19 16 15 14 15 16 15 13 11 12 14 14 15 14 15 15 14 11 11 13 13 15 15 17
27 31 32 33 32 30 27 21 19 16 15 16 17 20 19 16 18 22 24 24 21 17 18 21 22 20 20 19 18 16 14 15 14 11 11 14 15 12 10 12 12 14 12 11 9 11 13 16 19
29 29 31 31 31 30 27 22 19 18 20 19 20 18 21 16 17 17 22 25 21 18 16 20 21 24 24 23 20 19 17 17 17 15 13 14 14 13 9 10 9 12 13 14 12 11 13 13 16
32 31 32 33 31 29 29 23 21 22 22 20 20 24 25 22 21 19 16 20 17 15 16 17 22 21 24 25 23 21 20 19 17 15 13 12 13 13 11 9 9 11 12 12 12 13 14 14 14
35 34 34 33 32 30 30 28 25 24 23 21 20 20 22 21 22 25 22 21 19 18 17 19 21 25 24 25 25 22 21 20 18 17 14 12 11 11 11 10 9 11 11 12 11 12 14 16 16
37 36 36 37 39 38 35 33 28 30 27 25 24 23 21 19 21 26 27 25 23 20 19 17 16 25 28 27 28 25 22 22 20 18 16 14 12 11 11 9 9 9 11 12 12 10 12 14 15
39 39 39 39 40 41 38 35 37 32 33 31 30 28 25 23 21 19 27 28 28 25 24 21 16 18 28 30 30 29 26 24 23 20 19 18 15 14 11 10 8 9 11 12 11 11 10 11 13
38 40 41 41 42 43 40 40 39 36 35 35 35 33 31 29 27 22 27 32 31 30 25 22 19 16 18 27 29 29 29 28 25 23 21 20 19 16 14 11 10 8 9 11 11 10 10 10 11
35 36 37 40 42 43 43 43 42 40 39 38 37 36 35 33 30 28 30 32 34 33 30 24 23 20 21 23 28 30 31 31 29 26 25 23 21 20 18 14 12 10 10 10 11 11 9 9 9

GFSSGP_500_spd_087.txt.gz
Wind_Speed
1 3 5 6 4 2 1 4 7 14 12 12 13 12 13 13 12 11 15 14 15 18 16 14 13 13 14 12 13 13 13 14 14 12 10 9 9 9 10 10 10 10 10 10 10 10 11 11 9
1 3 4 5 6 4 4 9 13 16 13 13 12 11 12 12 11 11 14 16 13 16 16 14 13 12 12 12 12 13 14 15 15 14 11 9 9 10 10 10 10 10 9 8 9 9 11 11 7
4 3 5 9 15 13 11 13 14 13 12 11 11 12 11 11 11 11 13 16 14 14 15 13 11 12 11 12 12 13 14 16 17 17 14 14 12 11 11 10 10 9 9 8 9 10 11 12 16
11 12 10 16 10 16 12 18 18 14 11 9 10 10 10 10 12 10 13 15 15 14 14 13 11 11 11 12 12 14 15 16 17 18 17 17 16 15 14 10 9 9 9 10 12 12 11 13 14
10 11 11 15 8 19 18 14 18 14 11 10 9 8 8 10 12 11 11 14 15 15 13 13 11 11 12 12 12 13 14 16 17 16 17 16 16 15 13 12 12 10 10 13 13 12 11 11 11
3 7 14 9 9 30 22 20 17 13 12 14 11 8 8 11 13 13 12 12 13 13 14 13 12 12 12 12 12 13 13 13 15 15 15 14 13 13 12 12 12 11 10 9 11 12 11 9 8
3 8 15 24 11 20 24 22 16 18 13 11 11 8 9 12 14 14 12 11 11 11 12 13 12 12 11 12 13 13 13 12 12 14 14 12 11 10 10 10 11 11 10 9 9 10 10 9 7
2 4 7 15 13 15 13 16 17 18 13 15 13 9 8 14 16 16 13 12 11 10 10 12 12 11 10 11 13 12 12 11 12 12 13 11 10 10 9 8 8 9 9 9 9 8 6 5 7
4 3 2 4 10 10 10 14 12 13 17 18 13 8 9 12 17 18 15 13 13 11 10 11 12 11 10 11 12 11 12 12 12 10 10 11 11 10 9 9 9 9 8 7 8 7 8 9 12
6 2 1 2 7 8 7 13 20 17 20 21 15 14 12 10 14 18 15 15 14 12 10 11 11 11 10 11 11 12 11 12 12 12 10 9 11 10 10 10 11 10 9 8 8 9 10 12 11
7 6 5 3 7 8 5 18 14 20 21 20 14 11 14 13 14 16 14 12 15 14 11 11 11 11 11 11 10 12 13 12 11 14 13 11 6 6 6 11 11 10 10 10 9 10 12 12 12
12 9 8 3 4 9 10 10 16 16 23 19 13 13 12 13 16 17 17 16 15 14 13 12 11 10 11 11 10 12 11 12 13 11 13 15 12 12 15 12 13 11 13 11 13 14 13 14 12
16 14 9 5 4 6 3 3 5 17 21 16 16 15 12 11 12 15 15 15 14 15 13 12 11 10 12 11 11 12 14 11 12 13 15 14 13 13 12 16 15 11 9 10 11 13 13 15 14
23 17 14 10 8 8 4 2 8 15 22 21 15 14 14 13 13 17 17 15 15 14 13 13 12 11 13 11 12 13 13 10 13 12 14 15 13 13 15 13 11 14 17 13 15 13 14 15 15
25 21 16 15 12 9 5 6 11 21 21 20 16 16 14 12 11 11 15 17 16 14 13 14 13 13 14 12 12 13 13 11 12 12 14 16 12 13 13 14 12 14 15 13 15 14 15 15 17
27 23 19 16 14 12 14 10 12 16 25 17 19 18 16 14 12 12 13 16 16 15 13 16 16 14 15 12 10 14 12 12 12 12 15 17 14 12 12 12 12 13 15 14 14 15 14 15 17
29 25 22 18 19 19 20 14 13 12 18 17 20 21 18 12 12 13 15 17 17 16 15 15 17 16 15 12 11 13 12 14 12 14 15 15 14 14 13 11 11 13 13 14 14 14 16 16 16
27 25 22 19 18 20 17 16 14 15 18 20 19 17 15 12 15 17 15 17 17 16 15 13 15 15 17 15 13 14 12 10 11 14 15 15 14 14 14 13 11 12 13 12 13 13 15 16 16
30 28 26 24 21 21 20 17 17 17 16 18 17 15 16 14 15 17 16 16 17 16 17 16 15 13 17 16 16 15 12 10 10 14 14 14 13 14 14 14 13 12 12 12 13 13 15 16 15
32 32 31 30 26 25 21 18 17 18 23 14 15 16 15 11 12 15 17 16 21 21 21 19 17 14 15 13 15 17 14 12 8 12 14 13 13 13 13 15 14 14 12 11 12 13 16 17 16
31 31 33 33 30 30 25 21 21 23 18 17 16 16 16 18 18 18 21 21 19 21 23 22 20 15 13 13 16 18 17 15 12 10 12 13 13 13 13 13 12 13 15 13 12 13 14 16 16
30 32 33 34 30 30 26 25 21 21 18 18 18 16 21 24 21 20 19 24 22 24 24 23 22 19 15 14 17 18 16 15 12 10 9 12 15 14 13 12 11 11 12 14 14 14 14 17 16
31 32 34 35 33 27 25 24 24 20 23 24 23 25 23 24 22 21 21 25 25 25 25 25 25 23 20 17 17 16 15 15 15 13 11 10 12 13 14 11 11 10 10 10 14 15 15 16 16
35 36 34 33 32 28 25 22 26 28 27 27 23 25 26 23 24 22 25 27 24 22 25 25 23 24 23 20 17 16 15 15 15 13 13 11 9 9 11 12 11 10 9 8 11 14 15 15 16
33 34 35 34 33 31 25 23 27 28 27 27 28 25 28 27 27 24 25 23 21 20 18 21 23 22 23 23 19 17 16 17 16 14 14 13 10 7 8 9 11 12 10 9 9 12 13 15 15
35 34 32 34 32 29 26 28 28 27 26 27 28 28 27 28 28 29 29 27 25 25 24 22 22 25 25 24 23 20 20 20 19 17 15 14 12 9 7 7 10 12 12 11 11 12 13 15 17
38 38 36 33 31 29 31 32 29 29 27 26 28 29 28 28 23 23 27 27 28 27 26 27 27 29 29 28 26 24 22 23 22 21 18 16 15 12 9 7 9 11 13 13 13 14 14 15 16
41 39 40 38 35 35 33 32 32 30 29 28 28 27 28 29 24 24 24 27 27 27 28 28 30 31 33 31 29 28 26 25 24 22 21 20 17 14 12 10 8 8 10 12 12 12 14 15 17
41 41 41 40 39 39 36 34 31 29 30 31 30 29 28 28 25 26 25 27 29 30 26 26 27 30 31 32 31 30 30 28 26 23 22 22 20 18 16 12 9 8 9 10 11 10 11 14 15
39 41 42 41 41 41 39 38 35 33 32 32 33 32 29 26 26 25 22 24 28 32 30 26 24 23 26 33 34 32 32 31 29 27 26 24 21 21 19 16 14 11 11 10 10 10 9 10 12